sat.trackr.live / text

‹ back to catalog

STARLINK-30085

NORAD 56709 · 2023-067X

PAYLOAD ACTIVE UNKNOWN

§ Identity

Operator
Country
US
Launch date
2023-05-19
Launch site
AFETR
Launch vehicle
Mass (kg)
RCS (m²)

Purposes: comms

External: N2YO · Heavens-Above · Gunter

§ Orbital elements

Epoch: 2026-05-25T04:38:27.894624Z

Period
94.27 min
Inclination
43.0025°
Eccentricity
0.0001054
Mean motion
15.27578702 rev/d
Perigee alt
482.3 km
Apogee alt
483.8 km
Semi-major
6,861.2 km
B*
2.0129e-5
RAAN
198.7188°
Arg perigee
278.8579°
Mean anomaly
81.2153°
Rev number
16,714

§ Raw data

STARLINK-300851 56709U 23067X   26145.19337841  .00000292  00000+0  20129-4 0  99992 56709  43.0025 198.7188 0001054 278.8579  81.2153 15.27578702167144

JSON: /api/v1/satellites/56709 · /tle

For live sub-satellite position, see the globe view (requires WebGL).

§ Visibility from observer

Set your observer location to see the next 7 days of passes ≥ 10°. The values pass through the URL so the page stays shareable.

No JS? Fill the form by hand. The geolocation button needs JavaScript.